Wind_Speed
3 4 7 13 11 3 4 4 5 4 4 1 7 6 12 13 2 9 11 11 11 12 12 12 12 12 11 11 11 11 9 9 5 5 5 5 5 6 3 0 3 6 9 11
4 7 13 4 5 6 2 1 7 5 4 6 7 8 10 4 1 6 15 13 14 15 13 15 17 17 18 19 19 19 18 15 13 11 9 9 7 7 6 3 4 5 6 8
8 6 4 6 5 6 4 7 3 6 4 3 4 6 7 3 10 14 14 15 14 14 15 15 16 18 19 21 21 20 21 20 19 16 12 9 7 7 4 1 3 4 5 6
6 5 4 3 5 7 5 8 8 7 3 5 3 5 5 5 4 6 14 15 15 14 14 15 15 15 16 19 18 18 18 18 19 16 14 13 13 10 10 8 8 7 6 5
7 4 4 5 8 6 6 2 5 2 2 2 3 2 6 5 3 5 10 14 14 13 13 14 14 14 15 15 15 16 16 17 17 14 14 14 14 15 13 12 9 9 9 8
6 1 4 7 3 6 4 4 6 4 2 1 9 8 3 4 2 5 11 16 17 16 14 13 12 12 13 13 13 14 15 18 17 15 15 13 12 11 8 9 9 10 10 10
2 5 3 3 3 2 3 6 2 3 2 6 1 2 7 1 2 6 18 24 19 15 13 13 12 11 11 10 11 11 11 11 9 7 6 6 6 6 7 9 10 9 10 12
5 4 9 5 8 7 7 8 6 7 3 4 1 6 5 1 2 8 28 26 21 18 15 13 11 9 7 7 8 6 4 4 3 1 1 2 2 4 6 7 9 11 13 14
5 5 1 4 4 5 5 4 4 5 3 2 4 4 0 2 4 11 19 22 22 20 17 14 10 7 6 5 4 2 1 2 3 2 2 2 2 2 3 5 6 9 10 11
4 3 2 2 3 3 3 5 3 2 2 4 4 6 5 7 7 7 11 23 21 19 17 15 13 11 9 8 7 4 3 3 3 3 2 2 3 4 6 8 10 12 14 15
6 5 2 1 5 8 2 2 3 3 4 5 2 7 4 7 9 13 19 25 23 22 18 16 15 14 13 11 8 6 5 4 3 1 1 3 5 7 9 12 14 16 18 19
6 5 4 8 2 2 2 6 7 6 7 3 2 12 3 3 12 19 21 24 22 19 17 17 18 18 17 14 10 8 7 6 4 3 3 5 8 11 13 16 18 20 22 22
7 2 1 4 2 2 3 3 3 4 3 6 5 8 3 5 7 14 15 19 20 19 19 20 22 23 21 17 13 11 10 8 6 4 5 9 13 16 19 21 23 25 27 28
13 5 7 13 6 4 4 5 5 5 3 7 15 8 3 4 6 7 13 13 15 19 22 24 25 26 23 19 16 13 12 12 9 7 9 13 17 20 22 24 26 27 28 29
3 6 4 4 5 5 6 6 8 7 5 8 4 7 7 9 11 20 15 16 20 20 21 23 28 28 24 21 17 14 15 15 14 13 15 17 19 21 24 26 28 30 30 32
0 3 3 2 4 5 8 9 9 12 10 9 14 19 12 8 13 11 15 14 13 14 15 17 21 24 23 20 17 16 17 17 19 20 19 21 23 25 27 29 31 32 33 37
5 5 3 10 2 4 9 10 14 10 9 8 13 16 2 5 9 12 14 12 13 11 9 11 15 20 20 20 19 20 21 23 24 24 24 26 27 27 28 31 32 33 37 39
6 5 2 2 2 8 3 3 4 8 7 7 1 4 6 7 6 7 9 11 11 10 11 11 11 14 16 20 25 27 29 29 29 28 28 28 28 30 32 33 33 36 37 39
2 5 3 3 5 8 8 6 7 8 9 8 9 4 7 6 5 9 11 12 12 13 12 12 11 13 19 22 26 31 33 33 33 31 30 29 29 30 32 31 35 35 38 40
2 3 4 3 4 9 5 3 7 8 6 10 13 9 9 9 2 6 13 18 15 14 13 15 18 20 23 25 25 25 28 31 32 31 30 28 29 29 29 32 34 35 38 40
3 1 10 8 6 8 6 5 8 6 7 14 16 12 12 6 15 17 11 16 20 17 19 19 19 22 23 25 26 27 29 31 30 29 28 28 29 29 31 33 32 34 37 39
8 8 5 2 2 9 12 7 8 5 15 14 14 12 14 18 18 17 19 19 19 21 23 22 22 23 23 26 28 30 31 30 28 27 27 27 27 28 30 32 32 33 35 38
3 7 6 12 7 1 26 11 28 13 11 13 10 16 18 21 22 20 24 25 25 27 25 25 24 25 26 28 32 32 30 29 27 27 27 27 27 27 28 29 30 32 32 36
5 6 3 4 4 7 17 21 16 20 23 20 20 22 21 24 27 26 27 29 29 28 29 26 26 29 30 30 32 31 29 28 28 27 27 27 27 27 27 28 29 31 32 34
6 10 5 2 4 5 15 21 23 25 25 27 27 28 27 26 30 30 30 31 29 28 27 25 28 29 31 31 31 30 28 28 28 28 27 27 27 27 27 27 28 29 29 31
11 7 4 5 12 11 13 20 19 25 26 26 27 26 26 24 28 28 31 29 25 25 26 27 27 29 31 31 29 28 28 29 29 27 26 26 27 27 27 29 29 24 26 27
Wind_Direction
131 115 210 203 202 169 161 187 213 250 257 234 244 245 268 275 203 168 167 137 111 97 83 83 78 75 73 74 83 84 89 92 112 123 128 133 165 156 172 147 286 275 274 276
58 220 231 139 179 216 216 279 261 287 273 174 271 269 266 354 84 241 166 140 126 115 103 89 86 84 81 79 77 77 77 78 85 92 101 115 141 162 167 188 244 273 274 272
175 213 169 167 170 173 206 212 224 226 323 291 331 288 249 76 83 114 141 143 133 127 116 105 97 88 85 82 78 77 74 73 69 71 80 87 102 120 141 260 293 293 282 277
231 253 197 169 213 145 215 202 213 227 141 231 141 276 289 170 115 99 140 148 144 139 127 116 108 104 93 85 80 77 76 75 71 67 71 78 82 83 68 50 32 14 2 336
237 188 169 181 218 165 235 128 174 205 178 66 286 320 256 116 210 173 163 154 152 146 138 126 116 104 94 90 83 79 73 71 67 60 56 55 56 58 58 55 50 43 31 21
221 231 185 201 109 162 132 87 46 51 62 291 222 191 256 186 168 139 173 170 167 161 150 136 120 111 105 95 86 77 66 57 51 44 41 37 46 51 49 45 34 35 35 33
213 226 211 158 116 98 115 97 328 333 344 236 15 140 247 17 24 190 175 176 174 169 160 152 144 135 120 109 93 84 68 49 53 42 30 26 26 19 13 14 13 12 16 15
174 276 172 191 193 191 181 161 163 217 212 256 269 241 256 305 346 169 175 171 173 178 179 173 165 149 133 127 123 113 76 59 72 75 99 76 38 10 4 5 3 357 5 2
164 273 147 172 156 152 198 187 171 107 61 22 233 295 290 44 59 127 153 167 180 188 188 189 185 184 186 174 162 166 213 186 171 166 131 80 53 33 2 355 349 346 348 341
178 292 269 182 115 43 180 162 74 8 239 245 262 274 232 220 197 166 171 192 191 193 200 203 208 209 207 208 214 226 220 179 157 148 121 56 25 12 2 354 342 343 338 335
150 155 264 151 210 175 129 212 102 156 162 197 240 261 230 211 172 186 201 200 201 205 209 209 212 218 221 220 228 231 215 194 181 159 27 5 351 343 338 332 329 327 328 327
193 140 173 213 291 317 274 208 169 208 238 250 154 258 15 80 179 189 203 208 215 221 220 221 226 230 231 230 232 229 226 222 220 249 295 313 321 323 324 324 325 325 326 326
185 184 39 326 296 37 231 221 155 101 61 203 221 256 38 33 151 194 206 213 222 227 232 239 234 234 233 233 231 232 231 227 235 264 305 318 318 316 317 318 319 320 320 319
180 173 179 232 209 149 176 197 187 160 190 244 242 269 194 232 217 215 223 229 234 252 253 251 242 239 237 235 230 233 236 237 245 271 294 300 304 309 313 314 315 314 312 312
190 224 164 211 192 175 197 191 171 196 195 203 187 235 246 212 220 235 229 254 255 253 255 256 248 240 231 228 231 239 243 245 250 263 278 287 296 304 306 307 308 308 307 308
305 212 113 275 219 202 239 236 201 222 241 245 243 262 259 256 238 246 245 236 226 240 251 248 242 234 231 234 243 250 252 252 253 259 268 279 288 295 299 303 306 305 306 308
145 132 134 239 75 54 279 214 212 216 213 219 235 246 160 204 201 226 233 224 230 236 247 250 242 235 240 245 255 253 257 253 253 256 264 273 283 291 297 302 302 303 305 307
134 142 168 153 67 246 252 103 135 212 238 212 296 223 209 242 260 258 242 235 238 244 248 248 246 245 249 253 253 250 252 252 252 255 263 270 283 293 297 298 300 303 306 309
85 152 147 214 204 310 279 185 174 170 257 192 207 208 223 226 253 258 241 242 252 253 250 243 242 262 269 259 253 252 253 253 252 255 261 270 283 289 292 296 301 305 308 311
129 27 184 121 200 224 259 70 126 100 285 211 182 180 180 155 162 249 259 249 237 221 237 258 273 274 269 267 269 264 256 250 249 254 265 277 285 288 293 301 305 308 311 312
102 125 219 214 242 285 226 172 130 113 242 163 181 188 189 188 232 275 270 234 228 243 268 277 271 280 274 268 266 257 248 245 250 261 271 279 285 290 298 302 304 310 312 313
158 161 195 110 180 271 161 118 169 193 157 168 191 219 234 263 263 259 265 233 237 269 270 268 266 272 268 264 256 247 245 250 258 268 275 280 282 288 296 301 307 310 312 312
226 198 184 189 205 181 176 205 215 212 216 213 248 287 272 261 248 261 263 251 266 272 263 261 263 265 262 260 250 247 251 257 268 276 278 280 283 293 298 302 307 310 314 314
248 168 211 105 197 210 206 219 230 236 246 249 266 277 271 263 255 269 264 262 263 263 265 257 264 261 254 255 250 251 256 266 272 277 280 281 287 295 299 304 309 313 316 314
195 151 154 277 242 194 230 232 249 250 255 262 267 272 275 271 265 272 270 268 265 268 260 262 267 263 253 251 251 253 262 271 275 279 280 283 291 297 302 307 311 315 315 316
175 196 166 209 209 215 238 262 260 253 262 270 275 278 275 273 278 277 278 270 270 268 263 267 266 253 249 250 252 259 268 273 276 278 280 286 293 299 305 308 310 312 312 313
Height
1535 1542 1544 1537 1537 1536 1538 1544 1544 1539 1532 1534 1535 1535 1528 1523 1525 1525 1526 1527 1530 1530 1531 1528 1527 1526 1525 1525 1522 1519 1520 1518 1520 1521 1520 1522 1525 1526 1528 1529 1530 1531 1531 1531
1540 1541 1528 1531 1535 1539 1541 1542 1544 1539 1532 1536 1534 1532 1525 1523 1522 1524 1527 1529 1528 1529 1531 1531 1529 1528 1526 1525 1525 1523 1522 1523 1522 1522 1524 1523 1524 1526 1527 1528 1529 1529 1529 1529
1534 1528 1525 1529 1534 1538 1540 1543 1540 1539 1533 1532 1533 1533 1523 1526 1525 1524 1527 1529 1530 1529 1529 1530 1530 1529 1529 1527 1526 1525 1525 1525 1527 1527 1526 1528 1528 1527 1528 1529 1529 1529 1529 1528
1531 1522 1524 1528 1528 1532 1538 1530 1531 1533 1537 1543 1532 1543 1522 1520 1526 1528 1529 1530 1531 1529 1529 1529 1529 1529 1529 1528 1530 1529 1527 1527 1528 1531 1531 1529 1530 1530 1530 1530 1529 1530 1530 1529
1522 1520 1524 1527 1524 1526 1530 1528 1531 1532 1538 1538 1536 1543 1525 1521 1526 1530 1531 1532 1532 1533 1531 1529 1528 1529 1530 1532 1532 1530 1530 1531 1531 1533 1534 1533 1532 1532 1532 1533 1532 1530 1529 1529
1517 1516 1518 1517 1518 1521 1524 1529 1536 1542 1545 1553 1533 1533 1526 1519 1516 1526 1530 1531 1532 1532 1530 1530 1532 1531 1530 1532 1533 1531 1532 1532 1532 1533 1534 1536 1532 1533 1533 1533 1533 1532 1531 1529
1518 1516 1512 1514 1520 1521 1523 1530 1548 1553 1560 1544 1535 1536 1514 1510 1516 1517 1520 1525 1532 1535 1534 1532 1531 1532 1531 1531 1531 1532 1532 1532 1533 1533 1535 1536 1534 1533 1533 1533 1535 1533 1530 1529
1521 1521 1512 1509 1511 1518 1522 1522 1538 1546 1553 1541 1534 1529 1508 1514 1511 1508 1513 1521 1528 1531 1531 1533 1534 1534 1533 1532 1531 1532 1533 1532 1533 1533 1534 1532 1532 1533 1533 1533 1534 1535 1528 1528
1521 1518 1508 1505 1505 1509 1522 1526 1520 1530 1571 1559 1525 1515 1518 1522 1518 1517 1521 1523 1523 1527 1529 1532 1534 1534 1533 1534 1533 1533 1533 1534 1533 1533 1533 1532 1531 1532 1533 1534 1533 1531 1528 1528
1502 1515 1510 1508 1506 1510 1513 1514 1531 1540 1546 1558 1523 1521 1507 1519 1520 1519 1522 1523 1524 1526 1527 1529 1531 1533 1533 1532 1533 1533 1533 1532 1531 1531 1531 1531 1531 1531 1530 1530 1530 1528 1527 1525
1500 1505 1514 1511 1510 1509 1515 1518 1516 1523 1528 1531 1541 1509 1504 1504 1512 1517 1515 1519 1522 1523 1524 1526 1528 1529 1530 1530 1530 1531 1530 1530 1530 1530 1530 1530 1530 1529 1528 1528 1527 1525 1523 1520
1495 1502 1521 1513 1507 1506 1504 1507 1507 1514 1521 1530 1522 1498 1502 1502 1505 1508 1512 1516 1519 1521 1522 1523 1524 1525 1525 1526 1527 1528 1528 1528 1528 1528 1528 1528 1528 1527 1525 1524 1522 1521 1519 1517
1493 1504 1527 1509 1511 1505 1506 1507 1508 1513 1518 1520 1520 1502 1506 1505 1505 1507 1510 1512 1514 1517 1519 1520 1520 1520 1520 1521 1522 1524 1525 1526 1526 1526 1526 1525 1524 1524 1522 1520 1518 1516 1513 1511
1487 1493 1491 1490 1503 1501 1502 1505 1508 1508 1519 1504 1498 1503 1510 1508 1507 1506 1507 1510 1512 1513 1514 1514 1514 1515 1517 1518 1520 1521 1522 1523 1524 1523 1523 1522 1521 1521 1519 1517 1515 1512 1510 1507
1490 1494 1496 1491 1494 1498 1494 1497 1503 1504 1505 1509 1502 1507 1502 1503 1503 1502 1505 1506 1507 1507 1507 1508 1507 1509 1512 1514 1516 1517 1519 1520 1520 1519 1518 1518 1518 1517 1516 1514 1511 1508 1505 1502
1489 1496 1498 1499 1498 1496 1494 1492 1497 1496 1504 1508 1504 1497 1495 1497 1498 1500 1500 1500 1501 1502 1502 1502 1503 1506 1508 1510 1512 1514 1515 1515 1515 1514 1514 1514 1514 1513 1511 1508 1505 1502 1499 1495
1491 1498 1500 1483 1504 1504 1499 1491 1488 1489 1491 1492 1494 1483 1489 1491 1493 1494 1495 1496 1498 1498 1498 1499 1500 1502 1504 1506 1508 1509 1510 1510 1510 1509 1509 1509 1508 1507 1504 1502 1498 1495 1492 1487
1489 1497 1501 1504 1520 1500 1469 1475 1477 1481 1483 1486 1487 1487 1484 1486 1487 1488 1490 1491 1493 1494 1494 1496 1498 1500 1501 1503 1503 1503 1503 1503 1504 1504 1504 1503 1502 1499 1497 1494 1491 1488 1483 1478
1480 1490 1500 1498 1517 1489 1469 1471 1476 1479 1479 1476 1479 1479 1482 1485 1486 1486 1488 1488 1490 1491 1491 1493 1495 1497 1497 1497 1497 1497 1496 1496 1496 1497 1497 1496 1495 1493 1490 1487 1483 1479 1474 1469
1481 1483 1483 1518 1509 1497 1465 1467 1467 1470 1487 1470 1471 1475 1479 1483 1492 1481 1482 1485 1486 1488 1490 1490 1491 1490 1490 1490 1490 1489 1489 1489 1489 1490 1490 1489 1488 1485 1483 1479 1475 1470 1465 1460
1494 1492 1480 1488 1488 1486 1469 1466 1468 1493 1473 1465 1469 1472 1476 1480 1476 1476 1478 1480 1482 1484 1484 1484 1484 1484 1483 1483 1483 1482 1482 1482 1483 1483 1483 1482 1479 1476 1474 1470 1466 1461 1456 1450
1477 1492 1493 1500 1512 1491 1457 1466 1472 1462 1460 1463 1466 1468 1468 1469 1470 1472 1473 1476 1477 1477 1478 1477 1477 1477 1477 1476 1476 1475 1475 1476 1476 1476 1475 1474 1472 1470 1466 1462 1457 1453 1448 1441
1467 1458 1468 1466 1462 1452 1452 1451 1453 1455 1456 1458 1460 1462 1464 1465 1466 1467 1468 1469 1470 1470 1471 1471 1471 1470 1470 1469 1468 1468 1468 1469 1468 1468 1467 1465 1463 1460 1457 1453 1449 1444 1439 1433
1453 1450 1453 1454 1448 1449 1449 1450 1451 1452 1453 1455 1455 1458 1459 1459 1460 1460 1461 1462 1462 1462 1463 1463 1463 1462 1461 1461 1461 1461 1461 1461 1460 1459 1458 1457 1454 1452 1449 1445 1441 1436 1431 1426
1440 1442 1445 1449 1445 1447 1446 1445 1445 1446 1448 1450 1450 1452 1451 1452 1452 1453 1453 1453 1454 1454 1454 1455 1454 1453 1454 1454 1453 1453 1453 1453 1452 1451 1450 1448 1445 1443 1440 1436 1433 1428 1425 1419
1428 1426 1437 1441 1433 1435 1436 1437 1438 1440 1440 1443 1444 1444 1444 1445 1445 1445 1444 1444 1446 1446 1446 1446 1445 1445 1446 1446 1446 1446 1446 1445 1444 1443 1441 1439 1436 1434 1430 1427 1424 1424 1419 1414